Temp
24 24 24 24 23 23 23 23 23 23 23 23 23 23 23 23 23 23 23 24 24 24 24 24 24 24 23 23 23 24 23 23 21 21 23 23 23 22 22 23 23 22 22 22 22 22 22 21 21 22 22 22 21 21 21 21 22 22 22 22 22 22 22 21 22 23 22 21 22 21 21 21 21 21 20 20 20 20 20 20 21 20 20 20 20
25 24 24 24 24 24 24 23 23 23 23 23 23 23 23 23 23 23 23 24 24 24 24 24 24 24 24 23 24 24 24 24 22 22 23 23 23 23 22 22 22 22 22 22 22 22 22 22 21 21 22 22 21 21 21 21 21 21 22 22 21 22 22 21 22 22 22 21 21 21 21 21 21 21 21 21 20 20 20 20 20 20 20 20 19
25 24 24 24 24 24 24 24 23 23 23 23 23 23 23 23 23 23 23 23 24 24 24 24 24 24 24 24 24 24 24 24 23 23 24 23 23 23 23 23 23 22 22 22 22 22 22 22 21 21 21 21 21 21 21 21 21 21 21 21 21 21 22 22 21 22 22 22 21 21 21 21 21 21 21 21 21 20 20 20 20 20 20 20 20
26 25 25 24 24 24 24 24 24 24 24 24 24 24 24 24 23 23 23 23 23 24 24 24 24 24 24 24 24 23 24 24 24 24 24 24 23 23 23 23 23 23 22 22 22 22 22 22 21 21 21 21 21 21 21 21 21 21 21 21 21 21 21 22 21 21 22 22 21 21 21 21 21 21 20 20 20 20 20 20 20 20 20 20 19
27 26 25 25 25 24 24 24 24 24 24 24 24 24 24 24 24 23 23 23 23 24 24 24 24 24 24 24 24 24 24 24 24 24 24 24 24 23 23 23 23 23 23 22 22 22 22 22 22 22 21 21 21 21 21 21 21 21 21 21 21 21 21 22 21 21 21 21 21 21 20 20 20 20 20 20 20 20 20 19 19 20 20 19 19
27 27 26 26 25 25 24 24 24 24 24 24 25 24 24 24 24 24 23 23 23 23 24 24 24 24 24 24 24 24 24 24 24 24 24 24 24 23 23 23 23 23 23 22 22 22 22 22 22 22 22 21 21 21 21 21 21 21 21 21 21 21 21 21 21 21 20 20 21 21 20 20 20 20 20 20 20 20 19 19 19 19 20 20 19
27 27 27 26 26 25 25 25 25 25 24 24 25 25 24 25 24 24 24 24 23 23 23 24 24 24 24 24 24 24 23 23 23 24 24 24 24 23 23 23 23 23 23 22 22 22 22 22 22 22 22 22 22 22 22 22 21 21 21 21 21 21 21 20 20 20 20 20 20 20 20 20 20 20 20 20 19 19 19 19 19 19 20 20 19
27 27 27 27 26 25 25 25 24 24 24 24 24 24 24 24 24 24 24 24 24 24 24 24 23 24 24 24 24 23 23 23 23 23 24 24 24 23 23 23 22 22 22 22 22 22 22 22 22 22 22 22 22 22 22 22 21 21 21 21 20 20 21 20 20 20 20 20 20 20 20 20 20 19 19 19 19 19 19 19 19 19 19 19 19
27 27 27 26 26 25 25 25 24 24 24 24 24 24 24 24 24 24 24 24 24 24 24 24 23 23 23 23 23 23 23 23 23 23 24 24 23 23 23 22 22 22 22 22 22 22 22 22 22 22 22 23 22 22 22 22 22 21 21 21 20 20 20 20 20 20 20 20 20 20 20 20 20 20 19 19 19 19 18 18 18 19 18 18 18
27 27 27 26 26 25 25 25 24 24 24 24 24 24 24 24 24 24 23 24 24 24 24 24 23 23 23 23 23 22 22 23 23 23 24 24 23 23 22 22 22 22 22 22 21 22 22 22 22 22 23 22 22 22 21 21 22 22 21 21 20 20 20 20 20 20 20 20 21 21 21 21 21 20 20 19 19 18 18 18 18 18 18 18 18
28 27 27 26 26 26 25 25 25 24 24 24 24 24 24 24 24 24 23 23 23 23 23 23 23 23 23 23 23 22 22 23 23 23 24 24 23 23 23 22 22 22 22 22 21 22 22 22 22 22 22 22 21 21 21 21 21 21 21 21 20 20 20 20 20 20 20 21 21 21 21 21 21 20 20 20 19 18 18 18 18 18 18 18 19
28 27 27 26 26 26 25 25 25 24 24 24 24 24 23 23 23 23 23 23 23 23 23 23 23 23 23 23 23 22 22 23 23 23 23 23 23 22 22 22 22 22 22 22 21 21 22 21 21 22 22 21 21 21 20 20 20 21 21 20 20 20 20 20 20 20 20 21 21 21 21 21 20 20 20 20 19 18 18 18 18 18 18 18 18
28 27 27 27 26 26 25 25 25 24 24 24 24 23 23 23 23 23 23 23 23 23 23 23 23 23 23 23 23 23 23 23 23 23 23 23 23 22 22 22 22 22 22 22 21 21 21 21 21 21 21 21 20 20 20 20 20 20 20 20 20 19 19 20 20 20 20 20 20 20 20 20 20 20 19 19 18 18 18 18 18 18 17 17 18
28 27 27 27 27 26 25 25 25 24 24 24 24 23 23 23 23 23 23 23 23 23 23 23 23 23 23 23 23 23 23 23 23 23 23 23 22 22 21 21 22 22 22 22 22 22 22 22 22 21 21 21 20 20 20 20 19 19 19 19 19 19 19 19 19 20 20 20 20 20 20 19 19 19 18 18 17 17 18 18 18 17 17 17 17
28 28 27 27 26 26 26 25 25 24 24 24 24 24 23 23 23 23 24 23 23 23 23 23 23 23 23 23 23 23 23 23 23 23 23 23 22 22 21 21 21 21 22 22 22 22 22 22 22 22 21 21 20 20 20 20 20 19 19 19 18 18 18 19 19 19 19 19 19 19 19 19 19 18 17 17 17 17 17 17 17 17 17 17 17
28 28 27 27 26 26 25 25 25 24 24 24 24 24 23 23 23 23 23 23 23 23 23 23 23 23 23 23 23 23 23 23 23 22 22 22 22 21 21 21 21 21 21 21 21 21 22 22 22 21 21 21 21 21 20 20 19 19 19 18 19 18 18 19 19 19 19 19 19 19 19 19 18 18 18 17 17 16 17 17 17 16 17 17 17
28 28 27 27 26 26 25 25 25 25 24 24 24 24 24 23 23 23 23 23 23 24 23 24 23 23 23 23 23 23 23 23 23 22 22 22 21 21 21 21 21 21 21 21 21 21 21 22 22 21 21 21 21 21 20 20 19 18 19 19 19 19 18 18 19 19 19 19 19 19 19 18 18 18 18 17 17 16 16 17 17 17 17 17 17
27 27 27 26 26 26 26 26 25 25 24 24 24 24 24 24 23 23 23 23 24 24 24 24 24 24 24 23 23 23 23 23 23 23 22 22 21 21 21 21 21 21 21 21 20 21 21 21 21 21 21 21 21 20 20 20 19 18 19 19 19 19 18 18 18 18 19 19 19 18 18 18 18 17 17 17 16 16 16 16 17 17 17 17 17
28 27 27 27 27 26 26 26 25 25 25 24 24 24 24 24 24 23 23 24 24 24 24 24 24 24 24 24 23 23 23 23 23 22 22 22 21 21 21 21 21 21 21 21 20 20 20 20 21 21 21 21 21 20 20 20 19 19 19 19 19 19 18 18 18 18 18 18 18 18 17 17 17 16 16 16 16 16 16 16 16 16 17 17 17
28 27 27 27 27 26 26 26 25 25 25 25 24 24 24 24 24 24 23 23 24 24 24 24 24 24 24 24 23 23 23 23 23 22 22 22 21 21 21 21 21 21 22 21 21 20 19 19 20 20 20 20 20 20 20 19 18 19 19 19 19 19 18 18 18 19 18 18 17 17 16 16 16 16 16 16 16 16 16 15 15 16 16 17 17
28 27 27 27 27 26 26 25 25 25 25 25 24 24 24 24 24 24 24 24 24 24 24 24 24 24 24 24 24 23 23 23 23 23 22 22 22 21 21 21 21 22 22 21 21 20 19 19 19 20 20 20 20 20 20 19 18 18 19 19 19 19 18 18 18 18 18 17 16 16 16 16 16 16 16 16 16 16 16 15 15 16 16 16 17
28 27 27 27 26 26 26 25 25 25 25 25 25 24 24 24 24 24 24 24 24 24 24 24 24 24 24 24 24 24 23 23 23 23 22 22 22 22 21 21 21 22 22 21 21 20 19 19 19 19 19 19 20 20 19 19 18 18 18 18 18 19 19 19 18 17 17 16 16 16 16 16 16 17 16 16 16 16 16 16 15 15 16 16 16
28 27 27 27 26 26 26 26 25 25 25 25 25 25 24 24 24 24 24 24 24 24 24 24 24 24 24 24 24 24 23 23 23 22 22 22 22 22 22 21 21 21 22 22 21 20 19 19 19 19 19 19 19 19 19 18 18 18 18 18 18 19 19 18 18 17 17 17 17 16 16 17 17 17 17 17 16 16 16 16 15 15 15 15 14
27 27 27 26 26 26 26 26 26 25 25 25 25 25 25 24 24 24 24 24 24 24 24 24 24 24 24 24 24 24 23 22 22 22 22 22 22 22 22 22 21 21 22 22 21 20 19 19 19 19 19 19 19 19 18 18 18 18 18 18 18 19 18 18 17 17 17 16 16 16 16 17 17 17 16 16 16 16 15 15 15 15 14 14 14
27 27 26 26 26 26 26 25 25 25 25 25 25 25 25 24 24 24 24 24 24 24 24 24 24 24 24 24 24 23 23 22 22 22 22 22 22 22 22 22 21 21 21 21 20 20 19 19 19 20 20 19 19 18 18 18 18 18 18 18 18 18 18 17 17 17 16 17 17 17 17 17 16 16 16 16 16 16 15 15 15 15 14 14 14
26 26 26 26 26 26 26 26 25 25 25 25 25 25 25 25 25 24 24 24 24 24 24 24 24 24 24 24 24 23 23 22 22 22 22 22 22 22 22 22 21 21 20 20 20 20 20 20 20 19 19 19 18 17 17 18 17 17 18 18 18 18 17 17 17 17 17 17 17 17 17 16 16 16 16 16 15 15 15 15 15 14 14 14 14
25 26 26 26 26 26 26 26 26 26 26 25 25 25 25 25 25 24 24 24 24 24 24 24 24 24 24 24 24 23 22 22 22 21 21 21 21 21 21 21 20 20 20 20 20 20 20 20 19 19 19 18 17 17 17 17 17 17 18 18 17 17 18 18 17 17 17 17 18 17 17 16 16 16 16 15 15 15 15 15 15 15 15 14 14
25 25 25 25 25 25 25 25 26 26 26 25 25 25 25 25 25 25 25 25 25 25 25 25 25 25 25 24 24 22 21 21 21 21 21 21 20 19 20 20 19 19 19 19 19 19 19 19 18 18 17 16 16 16 16 16 16 17 16 15 16 17 17 17 17 17 17 17 17 17 16 16 16 16 16 16 15 15 15 15 15 15 14 14 14
23 23 23 23 24 24 24 24 24 24 25 25 25 25 25 25 25 25 25 25 25 25 25 25 25 25 25 25 23 21 20 20 21 22 22 21 20 19 20 19 19 18 18 18 18 18 17 17 16 16 15 15 15 15 15 15 15 15 15 15 16 16 16 16 16 16 17 17 17 16 16 16 16 16 16 16 15 15 15 15 15 14 14 14 14
21 21 21 21 21 21 22 22 22 23 24 24 24 24 24 24 24 24 24 24 24 24 24 24 25 25 24 24 23 22 21 21 22 22 21 21 21 21 21 20 19 18 18 18 18 17 16 15 15 15 15 15 14 14 14 14 14 13 14 16 17 16 15 15 16 16 17 17 17 16 16 16 16 16 16 16 16 15 15 15 14 14 14 14 15
20 20 20 20 20 20 21 21 21 22 22 22 22 22 22 23 23 23 23 23 22 23 23 23 23 24 23 23 23 23 23 22 21 21 21 20 20 20 20 20 19 18 18 18 17 16 15 15 15 15 15 15 15 14 14 14 14 13 13 14 15 15 15 15 16 17 17 17 16 16 16 17 17 17 16 16 16 15 15 14 14 14 14 15 15
20 20 20 20 20 20 21 21 21 21 21 21 21 21 21 22 22 23 23 23 23 23 23 22 22 22 23 23 23 23 22 21 20 21 21 21 20 19 19 19 18 18 19 18 17 15 15 15 15 15 15 15 15 15 15 15 14 14 13 14 14 15 15 16 17 17 17 17 16 16 16 17 17 17 16 16 16 15 15 14 14 14 14 14 14
20 20 20 20 20 20 20 20 20 21 21 21 21 21 21 21 21 22 23 24 24 24 24 23 23 23 22 22 22 23 22 21 21 22 22 21 19 19 18 18 18 18 18 17 16 15 15 15 15 15 16 16 16 15 15 15 15 15 14 15 15 16 16 17 18 18 17 17 17 17 16 16 16 16 16 16 16 16 15 15 15 14 14 14 14
20 19 19 19 19 19 19 19 19 19 19 19 19 20 20 20 20 20 21 21 22 22 22 23 23 22 22 22 22 22 22 21 21 22 21 20 18 18 18 17 17 17 17 16 16 15 15 15 15 16 16 16 16 16 16 16 16 16 16 16 17 17 17 17 18 17 17 16 16 16 16 16 16 16 16 16 15 15 15 15 15 15 14 14 14
19 18 18 18 19 19 18 19 19 18 18 18 19 19 19 19 19 19 19 20 20 20 20 20 21 21 21 21 21 21 21 20 20 21 20 18 17 17 16 15 15 16 16 16 16 15 15 15 15 16 16 16 16 16 16 16 16 17 17 17 17 17 17 17 17 17 16 16 16 16 16 16 16 16 16 16 15 15 15 15 15 15 14 14 14
18 18 18 18 18 18 18 18 18 18 18 18 18 18 18 18 18 18 18 18 18 18 18 19 19 19 18 18 18 19 19 19 19 19 18 17 16 16 15 14 14 15 16 16 16 16 16 16 16 16 16 16 16 17 17 17 17 17 17 17 17 17 17 17 16 16 16 16 16 15 15 15 15 16 16 16 15 15 15 15 15 14 14 14 14
18 18 18 17 17 18 18 18 18 17 17 17 17 17 18 18 18 18 18 18 17 17 17 16 16 16 16 15 14 15 16 18 18 17 16 15 15 15 15 15 15 16 16 16 16 16 16 16 16 16 16 16 17 17 18 17 17 17 17 17 17 17 17 17 16 16 16 16 15 15 15 15 15 15 16 16 15 15 15 15 14 14 14 13 13
17 17 17 17 17 18 18 18 18 17 17 17 17 18 18 18 18 18 18 17 16 15 15 14 13 12 13 13 13 12 12 13 13 13 13 14 15 15 16 16 16 16 16 15 16 16 15 16 16 16 16 17 17 17 17 17 17 17 17 17 17 17 17 17 17 17 16 16 16 15 16 16 15 15 15 15 15 15 15 14 14 14 14 13 13
17 17 17 17 18 18 19 18 17 17 18 18 18 18 18 18 18 18 18 17 15 14 13 13 12 11 11 11 12 11 10 9 10 11 13 14 15 15 16 16 16 16 15 15 15 16 16 16 16 16 17 17 17 17 17 17 17 17 17 17 17 17 17 17 17 17 16 16 16 16 15 16 15 15 15 15 15 15 15 14 14 14 14 14 14
18 18 17 17 18 18 18 18 18 18 18 17 18 18 18 18 18 18 17 16 15 14 13 13 12 13 12 11 12 12 11 11 13 14 14 15 15 15 15 16 15 15 15 16 16 16 16 17 17 17 17 18 18 18 17 17 17 17 17 17 17 17 17 17 17 16 16 16 16 16 15 15 15 14 15 15 15 15 14 14 14 14 14 14 14
19 18 18 17 18 18 19 18 18 18 17 17 17 18 18 17 17 17 17 16 15 14 14 13 13 14 15 13 13 14 14 14 14 15 15 14 15 15 15 15 15 15 16 16 16 17 17 17 17 17 18 18 18 17 17 17 17 17 17 17 17 17 17 17 16 16 16 16 16 15 15 15 15 15 15 14 14 14 14 14 14 14 13 13 13
19 19 18 18 18 19 19 19 18 18 18 18 18 18 17 17 17 16 16 16 15 14 14 14 15 15 15 15 14 15 15 14 14 14 14 15 15 15 15 15 15 16 16 17 17 18 18 18 17 17 17 17 17 17 17 17 17 17 17 17 17 17 17 17 16 16 16 16 16 15 15 15 15 15 15 14 14 14 14 14 14 14 13 13 13
18 18 18 18 18 19 19 19 19 19 19 18 18 17 17 17 17 16 16 16 15 14 14 14 15 16 16 15 15 15 14 14 15 15 15 15 15 15 15 15 15 16 17 17 18 18 18 18 17 17 17 17 17 17 17 17 17 17 17 17 17 17 17 16 16 16 16 16 15 15 15 15 14 14 14 14 14 14 14 14 13 13 13 13 13
18 18 18 18 18 18 18 19 19 19 19 18 17 17 17 18 17 17 17 16 14 13 13 13 14 15 15 15 15 15 14 14 14 15 15 15 15 15 15 15 16 16 17 17 18 18 18 18 17 17 17 17 17 17 17 18 18 17 17 17 17 17 16 16 16 16 16 15 15 15 15 15 14 14 14 14 14 14 14 13 13 13 13 13 13
18 18 18 18 18 18 18 18 18 18 18 18 18 18 18 18 18 18 17 16 15 14 13 13 13 14 14 14 14 14 14 14 14 14 14 15 15 15 16 16 16 16 17 17 17 17 17 18 18 17 17 17 17 17 17 18 18 17 17 17 17 17 17 16 16 16 16 15 15 15 15 15 14 14 14 14 14 14 14 13 13 13 13 13 13
17 17 17 17 17 17 17 17 18 18 18 18 19 19 19 18 18 17 17 16 15 14 14 13 14 14 14 14 14 14 14 14 14 14 15 15 15 15 16 16 17 17 17 17 17 17 17 17 18 17 17 17 17 17 17 17 17 17 17 17 17 17 17 16 16 16 15 15 15 15 15 15 14 14 14 14 13 13 13 13 13 13 13 12 12
16 16 16 16 17 17 17 17 17 17 17 17 18 18 18 18 17 17 16 15 15 15 14 13 14 14 14 14 14 14 14 14 14 14 14 15 16 16 17 17 17 17 17 17 17 17 17 17 17 17 17 17 17 17 17 17 17 17 17 17 17 17 16 16 16 16 15 15 15 15 14 14 14 13 13 13 13 13 13 13 12 12 12 12 12
15 15 15 15 16 16 16 16 16 16 16 16 16 16 16 16 16 16 16 15 15 15 15 14 13 14 14 14 14 14 14 14 15 15 16 16 17 17 17 17 17 17 17 17 17 17 16 16 16 16 16 16 17 17 17 17 17 17 17 17 16 16 16 16 15 15 15 15 14 14 13 13 13 13 13 12 13 12 12 12 12 12 12 12 12
15 15 15 15 15 16 16 16 16 16 16 16 15 15 15 15 15 16 16 15 15 15 14 14 13 14 15 14 14 15 15 15 15 16 17 17 18 18 17 17 17 17 17 17 17 16 16 16 16 16 16 16 17 17 17 17 17 17 16 16 16 16 15 15 15 15 15 14 14 13 13 13 13 12 12 12 12 12 12 12 12 12 12 12 12
14 14 15 15 15 15 15 15 15 15 15 15 15 15 15 15 14 15 15 14 14 14 14 14 14 15 15 14 13 14 16 16 17 16 16 16 17 17 17 17 16 16 16 16 17 17 17 17 16 16 16 16 16 16 16 16 16 16 16 16 16 15 15 15 15 14 14 14 13 13 12 12 12 12 12 11 11 11 11 11 11 11 11 11 11
13 14 14 14 14 14 14 14 14 14 14 14 14 14 14 14 14 14 14 14 14 13 14 14 14 14 14 14 14 14 15 16 17 17 16 16 16 17 16 16 16 16 16 16 16 17 17 17 17 16 16 16 16 16 17 17 16 16 16 16 16 15 15 15 14 14 14 13 12 12 12 12 11 11 11 11 11 11 10 10 10 11 11 11 11
Height
746 750 753 758 760 763 766 769 772 774 777 779 781 784 786 788 791 793 795 797 799 802 803 805 806 807 809 810 811 812 814 816 819 820 821 822 824 825 826 827 829 831 833 835 837 839 841 842 843 844 845 846 847 848 849 849 850 851 852 853 853 854 855 856 856 856 856 857 858 858 858 858 858 858 859 859 859 859 859 859 859 859 859 859 859
741 744 748 752 754 758 762 765 767 769 772 775 777 780 782 784 787 789 791 793 795 797 799 801 802 803 805 806 807 809 810 812 815 816 817 819 821 822 823 824 826 828 830 832 834 836 838 839 840 841 842 843 845 846 847 847 848 849 850 851 852 852 853 854 854 854 854 855 855 856 856 857 857 857 857 858 858 858 858 858 858 858 858 858 858
735 738 742 745 749 753 757 759 762 764 767 770 773 776 778 780 783 785 787 789 791 793 795 796 798 799 801 802 803 805 806 808 810 812 813 816 817 818 819 821 823 825 826 828 830 833 835 836 837 838 839 841 842 843 845 846 847 848 848 849 850 851 851 852 853 853 853 853 854 855 855 855 855 856 856 856 856 856 857 857 857 857 857 857 857
730 733 736 740 744 748 751 754 757 759 763 766 768 772 774 776 778 779 782 785 786 788 790 792 793 795 796 798 799 801 802 804 806 807 810 812 814 815 816 818 819 821 823 825 827 829 831 832 833 834 836 838 840 841 842 843 844 845 846 846 847 848 849 850 851 852 852 852 852 853 853 854 854 855 855 855 855 855 855 856 856 856 855 855 855
724 727 731 736 740 742 745 748 751 754 757 761 763 766 769 771 773 774 777 779 781 783 785 786 788 789 791 793 794 796 798 800 801 803 806 808 810 811 813 815 816 818 819 821 823 825 827 828 829 831 833 835 837 838 839 840 841 842 843 844 845 845 846 847 848 849 850 850 851 851 852 852 853 853 853 853 854 854 854 854 854 854 853 853 852
718 722 726 730 734 736 739 742 745 748 752 755 758 761 763 766 768 769 771 774 776 778 779 781 782 783 785 787 789 791 794 796 797 799 802 803 805 808 810 812 813 815 816 818 820 821 823 824 825 827 829 831 833 834 834 836 837 838 839 841 842 843 844 845 846 847 848 848 848 849 849 850 851 851 852 852 852 852 852 852 851 851 851 850 850
713 716 720 724 727 729 732 735 738 742 745 748 752 755 757 760 762 764 766 768 771 773 774 775 776 778 781 783 785 787 789 791 793 795 798 799 801 804 806 808 810 812 813 815 816 818 819 820 821 823 825 826 828 829 830 832 834 835 837 839 840 841 841 843 844 844 845 845 846 846 847 848 848 849 849 850 850 850 850 850 849 849 848 847 847
707 710 714 718 720 722 725 729 732 736 739 743 746 749 752 755 757 759 761 763 765 767 768 770 772 774 776 778 781 783 785 787 789 791 793 795 797 800 802 805 807 808 810 812 813 814 815 816 817 819 820 821 823 825 827 830 831 833 835 836 838 838 839 840 841 842 843 843 843 843 844 845 846 846 847 847 848 848 848 848 847 846 846 845 845
701 705 709 711 712 715 720 724 727 731 734 738 741 744 747 750 752 754 755 757 759 761 764 766 768 770 772 775 777 779 781 782 784 786 789 791 793 795 798 801 803 805 807 808 810 811 812 812 813 815 816 817 819 822 824 827 828 830 832 833 835 836 837 838 839 840 840 841 841 841 842 842 843 844 844 844 845 845 845 845 845 844 844 843 843
695 700 702 703 706 711 716 720 723 725 729 732 736 739 742 745 747 749 750 752 755 758 760 763 764 766 769 771 773 775 776 777 778 781 784 786 789 791 793 796 799 801 803 805 807 808 808 809 810 811 812 814 816 818 820 823 825 827 828 830 832 833 834 835 836 837 838 838 839 839 839 839 840 841 842 842 842 843 843 843 843 843 843 842 841
690 694 695 696 702 707 711 715 718 721 724 728 731 734 737 740 742 744 745 748 751 753 756 758 761 763 765 767 769 770 770 772 774 777 780 782 785 787 789 792 795 797 799 801 803 804 804 805 806 808 809 811 812 814 816 819 821 823 825 826 828 830 831 833 834 835 836 836 836 837 837 837 838 839 839 840 840 840 840 841 841 841 841 840 839
684 687 689 693 699 703 707 710 713 716 719 723 726 729 733 735 737 739 741 743 746 749 751 754 757 760 761 763 764 765 765 767 770 773 775 778 781 783 786 788 790 793 795 797 799 800 801 802 803 804 805 807 809 811 813 816 818 820 822 823 825 827 828 830 831 832 833 833 834 835 835 836 836 837 837 838 838 838 839 839 839 839 839 839 838
678 681 685 690 694 698 702 705 708 712 714 718 722 725 728 731 732 734 736 739 742 744 747 750 752 755 757 758 760 760 761 762 765 768 771 773 777 780 783 784 786 788 791 793 795 796 797 798 799 800 802 803 806 808 810 812 815 817 819 820 821 823 825 827 828 829 830 831 832 832 833 834 834 835 835 836 836 837 837 837 838 838 838 837 837
674 677 682 686 690 694 698 701 704 708 711 715 719 721 723 725 727 730 733 735 738 740 743 746 748 751 752 754 755 756 756 757 760 763 766 769 772 776 779 781 782 784 786 788 790 792 793 794 795 796 798 799 802 804 806 808 811 813 815 816 818 820 822 824 825 827 828 829 830 830 831 832 832 833 833 834 834 835 835 836 836 836 836 836 835
671 675 679 683 688 692 694 697 701 705 708 712 715 717 719 721 723 726 729 731 733 735 738 741 744 746 748 749 751 751 751 752 755 758 761 765 769 772 775 777 779 780 782 784 785 787 788 790 791 793 794 795 798 800 803 805 807 810 811 813 815 817 820 821 823 825 826 827 828 829 830 830 830 831 831 832 833 833 834 834 834 835 835 834 834
670 674 677 680 684 688 691 695 699 702 705 708 710 712 714 716 719 722 724 726 728 730 733 736 739 741 743 744 746 746 746 748 750 753 756 760 765 768 771 773 775 776 778 779 781 782 784 785 787 789 790 792 794 796 799 802 804 807 809 810 813 815 817 819 820 822 824 825 826 827 828 828 828 829 830 830 831 832 832 833 833 833 833 833 832
666 669 673 677 681 684 688 692 694 697 700 702 704 706 708 710 713 716 719 721 723 725 728 731 733 735 737 739 740 741 742 744 745 748 752 756 760 763 765 768 771 772 773 774 776 777 779 780 783 785 786 788 790 793 796 799 801 804 806 808 810 812 814 816 818 820 821 823 824 825 825 826 827 827 828 828 829 830 831 831 831 831 831 831 831
660 664 668 672 676 679 682 685 687 690 692 693 696 698 701 704 707 710 712 715 717 720 723 726 728 729 731 732 733 736 738 739 740 743 747 751 755 758 760 764 766 768 769 770 772 773 774 775 778 780 782 783 786 789 793 796 798 800 803 805 807 809 811 813 815 818 819 821 822 823 824 825 825 825 826 826 827 828 829 829 830 830 830 830 829
653 658 662 666 669 673 675 678 682 684 686 688 691 693 696 699 702 705 708 710 711 713 717 720 721 722 724 726 727 730 732 732 734 738 742 746 750 753 756 759 761 762 764 766 767 768 769 771 773 776 778 780 783 786 789 792 794 797 799 801 803 806 808 810 813 815 817 819 820 821 822 823 823 824 824 825 825 826 827 828 828 829 829 828 828
650 655 658 662 665 668 671 674 678 680 682 683 686 689 691 694 697 701 703 706 708 710 711 712 712 713 717 720 722 723 725 727 729 732 736 740 744 748 751 752 754 757 759 761 763 764 765 767 769 771 774 777 779 783 785 787 790 793 795 797 799 802 805 808 810 813 815 817 819 820 821 821 822 823 823 823 824 825 825 826 827 828 828 828 828
651 655 659 661 664 667 669 672 674 676 678 681 684 686 688 691 694 696 699 702 705 707 708 708 708 708 710 713 716 717 719 721 724 727 731 734 738 742 745 746 748 752 755 756 758 760 761 763 765 767 770 773 776 779 781 783 786 789 791 793 796 799 802 805 808 811 814 815 817 818 819 820 821 821 822 822 823 824 824 825 826 826 827 827 827
650 653 656 659 661 664 666 669 671 674 677 680 682 684 686 689 692 694 696 699 701 703 705 706 707 706 706 707 709 711 712 714 717 720 723 727 731 735 738 739 743 748 751 752 754 756 757 759 761 763 766 770 773 776 778 780 783 785 787 789 793 796 800 803 806 809 812 813 815 816 817 818 819 820 820 821 822 823 823 824 825 825 825 826 826
648 650 652 654 656 659 661 663 667 670 673 675 678 681 684 686 689 691 693 696 698 700 701 703 705 705 704 703 703 703 704 706 709 712 715 719 723 727 730 733 737 742 746 748 750 752 754 756 758 760 764 768 771 773 776 778 780 782 784 786 790 794 798 801 804 807 809 811 812 814 815 816 817 818 819 820 821 821 822 823 823 824 824 824 824
647 649 650 652 654 656 659 661 664 667 669 672 675 678 680 682 685 687 689 691 694 695 696 698 700 701 702 702 702 701 700 700 702 704 708 712 716 719 723 727 732 736 740 744 746 748 750 752 755 758 762 766 769 772 775 777 778 779 781 784 788 791 795 798 801 804 806 808 809 811 813 814 815 816 817 818 819 820 820 821 821 822 822 822 822
646 648 649 651 653 656 658 661 663 665 667 669 672 674 676 678 680 682 684 686 689 690 691 692 692 692 693 695 697 698 698 697 697 699 702 707 711 713 718 722 726 731 735 739 741 743 745 748 751 756 760 764 767 772 775 776 776 777 779 782 785 788 792 796 798 800 803 805 807 809 810 811 813 814 815 816 817 818 818 819 819 820 820 820 820
645 647 648 650 652 655 657 659 661 663 665 667 669 671 673 675 676 677 679 681 682 683 684 685 685 684 684 686 689 692 695 695 695 696 700 704 706 709 714 718 722 727 731 734 736 738 742 745 749 753 757 760 765 770 774 775 776 777 778 780 783 785 788 792 795 797 799 802 804 806 808 809 811 812 813 814 815 816 817 817 818 818 818 819 819
644 646 648 650 652 654 656 657 659 661 663 664 666 668 669 671 672 674 675 676 677 677 678 679 680 679 679 681 684 686 688 689 690 692 695 698 700 704 709 713 718 722 726 729 731 734 738 742 746 750 754 758 762 768 772 775 775 776 777 779 781 783 785 788 792 794 796 799 801 803 805 807 808 810 811 813 814 814 815 815 816 816 817 817 817
644 646 647 649 651 652 654 656 657 659 660 661 663 664 665 667 668 668 668 669 670 671 672 673 674 674 674 677 679 680 680 680 679 680 683 687 692 697 702 706 712 717 720 722 725 730 734 739 743 748 751 754 759 765 770 773 774 774 775 777 779 781 783 786 789 792 794 796 798 800 802 804 806 808 810 811 812 812 812 813 814 814 815 815 815
644 646 647 649 650 652 653 654 656 657 658 659 661 662 663 664 665 665 665 666 667 667 668 668 667 668 670 672 673 673 672 670 668 668 671 674 679 685 691 696 702 709 713 715 720 725 730 734 739 744 747 750 755 762 768 771 772 773 773 774 776 778 780 784 787 789 791 793 795 797 800 802 804 806 807 808 809 809 810 811 812 812 813 814 813
645 647 648 650 651 652 653 654 655 656 657 658 659 660 661 663 664 664 664 665 665 666 666 666 665 666 666 665 664 663 661 660 662 665 669 672 674 677 682 687 694 702 708 711 715 720 725 730 735 739 741 745 751 758 764 768 769 770 770 771 772 774 777 782 785 786 788 790 792 795 798 800 802 803 804 805 806 807 808 809 810 811 811 811 811
647 648 650 651 652 652 653 654 654 655 656 657 658 659 660 660 661 662 662 662 663 663 663 663 663 663 662 661 659 657 657 659 663 668 672 676 678 680 681 682 686 693 701 707 712 715 719 725 731 734 736 741 747 754 760 764 766 767 767 767 769 771 775 779 782 783 785 788 790 792 795 797 799 800 801 802 803 804 806 807 808 809 809 809 809
649 650 651 651 651 652 652 653 654 654 655 655 656 657 658 658 658 659 660 660 659 659 658 657 657 657 656 655 654 653 653 656 659 664 668 672 676 681 684 684 685 688 694 700 707 711 715 720 724 727 731 736 743 750 755 760 763 764 764 765 766 768 771 775 778 781 783 785 788 790 792 794 796 797 798 799 801 802 804 805 806 807 807 807 807
651 651 652 651 652 652 652 653 653 653 653 654 655 655 656 657 656 657 656 656 655 654 652 651 649 648 647 647 646 646 647 647 650 654 659 662 667 673 678 681 683 687 691 695 700 708 714 717 719 721 724 729 736 744 751 757 760 761 762 763 763 764 769 773 776 779 781 783 785 787 790 792 793 794 795 797 798 800 801 803 804 804 805 805 804
652 652 652 653 653 653 653 654 654 654 654 654 655 655 656 656 655 655 653 651 649 647 645 643 640 638 636 635 636 637 637 638 641 646 649 653 657 662 668 673 678 684 690 695 699 706 713 717 717 716 718 722 730 739 748 754 757 759 761 761 761 763 767 771 774 777 779 780 783 785 787 789 790 791 792 794 796 797 799 800 801 802 802 802 802
653 653 653 653 653 653 654 654 654 655 655 655 655 655 655 654 653 652 651 648 645 641 638 634 631 629 626 624 624 625 626 627 631 636 639 642 647 652 658 666 672 679 687 694 699 704 710 715 715 714 714 718 725 733 743 750 754 757 759 759 759 761 765 769 772 774 776 778 780 782 784 786 787 788 790 792 793 795 796 798 799 799 800 800 800
653 654 654 654 653 653 654 654 654 655 655 655 655 654 653 653 652 650 649 647 644 640 634 628 623 621 618 617 616 616 614 614 618 622 627 633 639 646 653 660 666 674 682 690 696 702 708 712 715 716 716 718 721 728 738 746 751 754 757 757 757 760 763 767 770 771 773 776 778 780 781 783 784 786 788 789 791 793 794 795 796 797 798 798 798
654 654 654 655 654 654 655 655 656 656 655 655 655 654 653 652 651 650 648 645 641 637 633 628 622 617 613 612 613 614 611 609 609 613 620 629 637 643 651 660 668 674 681 686 692 699 705 707 711 717 720 719 721 727 736 743 748 752 754 755 756 758 762 765 767 768 771 773 775 777 779 781 782 784 786 787 789 790 791 793 794 795 796 796 796
655 655 655 656 656 656 656 656 656 656 655 655 655 655 655 654 652 651 648 645 640 636 633 630 625 618 612 609 610 616 618 614 611 612 615 623 632 640 648 658 668 675 681 686 692 698 702 705 710 717 721 721 723 729 736 742 746 749 751 753 755 758 760 763 764 766 768 771 773 775 777 779 781 783 784 785 786 787 789 791 792 793 793 793 794
656 656 656 656 657 658 657 657 657 656 656 656 655 655 655 654 653 652 649 646 642 638 637 635 627 620 617 613 610 617 626 624 619 619 617 615 622 635 645 655 666 675 681 687 692 697 700 705 711 718 722 723 726 731 736 740 743 746 748 751 754 757 759 761 762 764 766 769 771 773 775 777 779 781 782 783 784 785 787 789 790 790 790 791 791
657 658 658 658 659 659 659 658 658 657 657 657 656 656 655 654 654 652 651 649 646 641 640 637 626 618 622 624 619 622 630 627 623 628 629 625 628 640 648 656 666 675 681 686 690 694 699 705 711 717 721 724 728 731 734 737 741 743 746 749 752 755 757 759 760 762 764 767 769 771 773 775 777 779 780 780 781 783 785 787 788 788 788 789 789
659 660 660 660 661 661 661 660 660 659 659 658 657 656 656 655 655 655 653 653 650 644 640 636 626 621 630 639 637 636 637 633 628 633 638 639 643 651 656 661 669 676 681 686 690 695 700 706 710 715 719 724 727 730 732 735 738 741 744 748 751 753 755 756 758 760 762 765 767 769 771 773 775 776 777 778 779 781 783 785 786 786 786 787 788
662 662 662 663 663 663 663 663 662 661 660 659 657 657 657 656 656 656 656 655 654 650 644 639 631 630 640 650 651 648 647 644 641 642 646 649 655 661 665 670 675 679 684 689 693 697 701 706 711 715 719 722 725 728 730 733 736 739 743 746 749 751 753 754 756 758 760 762 765 767 769 771 772 773 775 776 777 779 781 783 783 784 784 785 786
664 664 664 664 665 665 664 664 664 662 661 660 658 658 658 657 657 658 658 658 658 656 652 647 642 640 645 653 657 656 654 652 650 651 655 659 664 669 674 679 682 685 689 693 696 700 704 707 711 715 718 721 724 726 728 731 734 737 741 744 747 749 751 752 754 756 758 760 763 765 766 768 769 770 772 773 775 777 779 780 781 781 782 783 785
666 666 666 666 666 666 666 666 666 664 663 662 661 660 659 659 658 659 659 660 660 660 659 657 654 651 651 654 657 659 659 658 658 660 663 667 671 675 680 684 687 690 693 696 699 702 705 708 712 715 718 720 722 725 727 730 733 736 740 743 745 747 748 750 752 754 756 758 761 762 764 765 766 768 769 770 773 775 776 777 779 779 780 782 783
668 668 668 667 667 668 667 667 667 667 665 663 662 662 662 661 661 660 661 662 662 663 663 663 663 661 660 659 659 660 662 664 665 667 670 672 675 679 682 686 690 693 695 697 700 703 706 708 711 714 716 719 721 724 727 730 733 736 739 741 743 745 746 748 750 752 754 756 758 760 762 763 764 765 766 768 770 772 773 775 776 777 778 780 781
670 669 669 669 668 668 668 668 668 668 667 665 664 664 664 664 664 663 662 663 664 664 665 665 666 666 666 666 665 665 666 668 669 672 674 676 679 682 685 688 691 694 696 698 700 703 705 708 710 712 715 717 720 723 727 730 733 736 738 740 742 743 745 747 749 750 752 754 756 758 759 760 761 763 764 765 767 769 771 772 774 775 776 778 779
672 672 671 671 671 670 670 670 669 669 668 667 666 666 667 667 667 666 665 664 664 664 665 666 667 668 670 671 671 670 671 671 672 674 677 679 681 684 687 689 692 694 696 698 700 702 704 707 709 711 714 717 720 723 727 730 732 735 737 739 741 742 744 745 747 749 751 752 754 755 757 758 759 760 762 763 765 766 768 770 772 773 775 776 776
676 675 674 674 674 673 673 672 671 670 669 669 668 668 669 670 670 670 669 667 665 665 665 667 669 670 671 673 673 673 673 674 674 675 678 680 682 685 687 690 692 694 696 698 700 702 704 707 709 711 714 717 720 723 726 729 732 734 736 738 739 741 742 744 746 747 749 751 752 753 754 756 757 758 759 761 763 764 766 768 770 771 772 773 774
679 678 678 677 677 677 677 676 675 673 672 671 671 670 670 671 672 672 672 670 669 667 667 669 670 670 670 673 674 673 673 674 675 676 678 680 683 685 688 690 692 694 696 699 701 703 705 707 709 712 714 717 720 723 726 728 730 732 734 736 738 739 741 743 744 746 748 749 750 751 752 753 755 756 758 759 761 763 764 766 767 769 770 771 771
683 682 681 681 680 681 681 680 678 677 675 674 673 672 673 673 674 674 673 673 672 671 670 671 672 671 671 674 676 675 674 674 676 678 680 682 683 686 689 691 693 696 698 700 702 704 706 708 710 712 715 718 720 723 725 727 729 731 733 734 736 738 739 741 743 745 746 747 748 749 750 751 752 754 756 758 760 761 762 764 766 767 768 768 769
687 686 685 684 684 683 683 682 681 680 679 677 676 676 676 676 676 675 674 674 674 673 673 673 674 674 674 676 678 678 676 676 678 680 682 684 685 686 689 692 695 697 699 701 703 705 707 709 711 713 715 717 720 722 724 726 728 729 731 733 735 736 738 740 742 744 745 745 746 747 748 749 751 753 754 756 758 759 761 762 764 765 765 766 766
Wind_Speed
35 37 38 35 35 36 37 38 39 37 36 37 37 36 36 37 36 35 34 35 35 34 34 34 33 32 31 29 29 28 25 21 17 18 25 27 26 26 27 26 26 26 25 24 23 22 21 20 21 20 19 17 17 16 15 16 15 13 12 11 10 11 10 9 8 7 7 7 7 6 7 7 8 9 8 6 6 7 8 9 9 9 8 7 7
34 37 38 36 37 38 37 37 39 39 36 35 35 35 35 37 38 36 35 36 36 36 35 35 34 34 33 32 32 31 30 27 20 20 27 29 28 28 29 28 28 27 26 25 24 23 22 21 21 21 21 19 18 17 16 17 17 15 15 14 12 12 12 11 9 8 8 7 7 7 8 9 8 9 8 6 5 6 7 8 9 9 9 8 8
34 38 41 38 38 38 36 36 37 38 36 33 33 33 33 36 39 39 36 35 36 38 37 37 37 36 35 35 35 33 33 30 26 26 30 30 30 31 31 30 29 28 28 27 25 24 23 23 22 22 22 21 20 18 16 17 17 16 16 16 14 12 14 14 11 10 9 7 7 7 8 9 10 10 9 8 8 8 8 8 8 9 10 9 9
32 36 39 37 36 37 36 35 35 36 35 33 32 32 32 33 37 39 37 33 35 39 39 38 38 38 37 36 36 36 35 34 31 31 31 31 32 33 32 32 31 30 30 28 27 26 25 25 24 23 23 22 21 20 19 18 18 18 17 17 16 15 15 16 15 13 10 8 8 9 8 8 9 9 10 10 9 9 10 9 8 9 9 9 9
31 34 37 35 34 35 37 36 35 35 35 33 33 34 33 31 33 37 37 33 34 38 41 40 40 40 39 39 38 38 37 36 35 33 32 32 33 34 34 33 33 32 31 29 28 28 28 28 27 25 23 23 21 21 21 20 20 19 18 18 18 18 17 18 18 16 13 10 10 10 10 9 9 10 11 11 9 9 9 9 9 9 10 10 11
32 32 34 34 34 35 36 36 35 35 35 34 34 35 34 32 31 35 37 34 33 36 40 42 42 42 41 40 40 39 39 38 37 35 34 33 34 35 35 35 34 33 32 30 29 29 29 29 29 27 26 24 23 23 24 23 22 22 21 20 20 20 19 19 19 18 16 13 12 11 11 11 10 10 11 12 10 8 7 8 9 10 12 14 14
32 32 34 35 34 35 36 37 36 35 36 36 35 34 35 34 32 33 35 35 34 34 38 42 44 43 43 42 41 40 40 39 39 37 36 35 36 36 36 35 35 34 33 31 30 29 29 30 30 29 29 27 26 26 26 25 24 23 23 21 21 21 19 18 19 18 16 14 13 13 12 11 11 11 11 12 11 9 8 7 8 10 14 15 14
32 32 33 33 34 36 37 36 36 36 36 36 35 34 34 35 33 33 34 35 35 35 37 40 43 43 43 42 42 41 40 40 40 39 38 37 37 37 37 36 35 34 33 32 30 29 29 29 30 30 30 30 29 28 27 25 24 23 22 20 20 20 18 16 17 17 15 13 13 13 12 11 11 10 11 10 9 8 8 7 8 10 13 15 14
33 32 32 34 37 37 36 34 33 36 36 35 35 35 34 34 34 33 36 37 36 35 36 36 38 41 42 41 41 40 40 40 41 41 40 39 38 37 37 37 36 34 33 32 30 30 31 31 30 30 30 30 29 28 26 24 24 23 21 19 19 20 18 15 15 15 14 14 13 12 11 11 11 10 10 9 8 8 7 7 7 8 9 12 13
36 35 33 37 39 38 38 36 33 35 39 38 38 39 36 35 35 34 37 39 36 33 34 33 34 37 38 39 39 38 39 41 42 42 41 41 40 39 37 37 36 35 34 32 30 30 32 32 31 30 31 30 28 27 25 24 25 24 21 20 19 19 18 16 15 15 14 14 14 13 12 12 11 10 9 9 8 7 6 6 5 7 8 9 10
37 36 35 36 37 38 40 40 36 37 41 40 39 41 38 36 36 35 37 39 36 34 35 34 32 31 33 36 36 36 39 42 42 42 43 41 39 39 38 38 37 36 35 32 31 31 32 32 32 31 31 30 28 27 25 24 26 25 23 21 21 20 19 17 16 16 15 14 14 13 12 12 10 9 9 8 7 6 5 4 5 7 8 9 9
36 38 36 33 37 40 39 38 38 37 39 38 38 40 38 35 35 34 35 37 36 34 34 34 33 31 29 31 33 35 39 42 42 43 44 43 41 38 36 37 37 36 35 33 31 32 32 31 31 32 31 29 27 26 25 23 26 27 23 22 22 22 21 21 20 17 16 15 14 13 12 12 11 9 8 7 6 5 5 4 6 8 9 10 11
37 39 34 33 39 41 37 37 37 35 36 37 36 37 37 36 35 34 35 35 35 34 32 32 33 32 30 30 32 33 37 41 43 44 43 44 43 39 34 34 36 36 35 34 33 33 32 31 31 31 30 28 26 25 24 23 25 26 23 21 22 22 22 23 23 20 17 16 15 14 12 11 10 8 8 7 5 5 5 5 7 8 9 10 12
32 34 33 35 40 40 36 36 34 32 33 35 34 35 37 36 35 34 33 33 33 34 35 33 32 33 33 32 32 33 36 41 43 43 44 43 43 41 36 32 34 36 36 36 35 34 34 33 32 32 30 28 26 25 24 23 23 25 23 21 21 22 23 24 23 22 19 16 14 13 11 10 9 8 8 7 6 5 6 7 8 8 9 11 11
30 29 29 33 35 35 35 33 29 29 31 32 32 34 35 35 35 33 31 32 33 34 34 34 34 35 34 33 33 34 36 40 42 42 44 44 42 42 39 33 31 33 35 36 35 35 35 34 33 33 31 29 28 26 25 22 22 24 22 19 18 19 21 23 22 20 18 16 14 12 10 10 10 9 7 6 5 6 6 7 7 7 8 10 11
27 25 26 29 30 31 31 28 26 27 29 30 31 33 34 35 34 32 30 31 32 33 33 34 35 35 34 34 35 34 34 38 42 42 43 43 41 40 41 36 30 30 33 35 35 35 35 34 34 33 31 30 30 28 24 20 21 24 21 16 15 16 17 20 21 19 17 15 13 12 11 11 10 9 8 6 6 6 5 6 6 7 8 10 10
24 25 26 26 28 29 30 30 29 29 30 32 33 34 35 34 34 35 34 31 31 33 34 35 34 34 36 37 36 35 33 35 41 42 41 43 41 40 42 38 30 28 31 33 34 35 35 35 34 33 32 31 30 28 23 19 20 22 19 15 16 16 16 19 21 19 17 14 12 12 12 11 9 8 7 7 7 6 5 6 7 6 7 8 7
28 29 27 26 30 34 38 39 38 35 34 35 36 36 36 35 36 39 37 32 32 34 34 34 35 35 37 37 36 36 34 35 40 41 40 42 41 41 42 38 30 28 29 28 28 31 35 36 35 33 33 33 31 28 24 21 20 21 19 17 18 18 17 19 20 18 15 14 13 13 11 9 7 7 7 7 7 6 6 6 6 5 5 5 5
31 31 30 33 38 41 43 42 40 38 36 35 35 35 35 35 35 38 37 33 33 34 34 36 37 35 35 36 38 38 34 33 38 41 40 41 41 41 42 39 32 29 28 26 25 24 27 32 35 34 33 32 31 27 24 23 22 21 19 19 20 20 19 21 21 19 17 16 14 13 10 8 8 8 7 8 8 7 7 6 5 4 4 4 4
31 31 33 36 38 40 41 40 39 39 39 37 35 34 34 35 36 38 38 34 32 33 34 36 36 34 35 36 38 39 35 33 36 40 40 40 41 41 40 37 33 30 29 29 27 23 21 25 31 34 33 31 29 25 23 25 25 21 21 22 22 21 22 22 21 20 18 16 15 12 11 10 9 8 7 7 7 6 6 6 5 4 3 3 4
26 28 30 30 30 33 35 36 38 39 38 35 32 31 32 34 34 35 35 32 31 33 33 34 35 35 34 35 36 38 38 36 36 39 41 41 42 42 39 36 35 31 28 29 28 23 20 21 25 32 34 30 27 24 24 28 28 23 22 23 23 24 26 24 21 19 17 15 14 12 11 10 8 7 6 6 5 5 6 6 5 5 4 4 5
24 27 28 27 27 30 33 35 36 34 30 29 29 28 29 31 30 30 30 30 32 34 32 32 34 33 32 34 37 38 38 38 40 41 41 42 43 43 41 40 39 33 29 29 29 25 22 21 23 30 33 28 25 25 26 29 29 25 23 24 25 26 26 24 21 19 16 14 13 11 10 10 8 8 7 7 7 7 7 6 6 5 5 5 6
25 27 29 29 30 33 36 37 35 30 28 29 30 27 26 27 27 27 28 28 30 32 31 31 31 30 29 32 38 40 37 39 43 44 43 44 44 44 44 44 42 37 31 29 28 23 20 20 23 28 30 27 26 27 28 30 31 27 25 26 26 25 24 23 22 19 15 14 13 12 11 11 9 9 9 8 8 8 7 6 6 5 6 7 7
22 25 27 28 29 31 32 32 29 27 27 28 28 26 25 26 27 27 29 30 30 30 32 32 31 30 28 29 34 36 35 37 43 47 46 46 46 46 46 45 44 41 34 27 23 20 20 23 25 26 27 27 27 29 29 29 30 28 26 26 26 26 25 24 23 20 16 14 13 12 12 12 11 10 10 9 8 8 7 6 6 7 7 8 9
20 21 22 24 25 25 25 25 25 25 25 26 27 26 25 25 25 27 29 30 29 30 31 31 31 30 29 29 32 33 32 34 40 46 47 46 45 47 47 46 45 43 35 28 26 25 25 27 27 26 27 27 28 29 29 28 28 28 28 28 28 28 27 24 21 19 16 14 14 14 13 13 12 11 11 11 10 8 7 6 7 7 8 9 10
16 17 17 19 21 20 20 20 22 23 24 24 25 26 25 25 25 27 28 28 31 32 31 30 31 29 28 30 32 29 28 29 33 39 44 45 46 47 46 45 47 44 36 31 30 31 29 28 26 27 29 30 31 31 29 28 28 29 30 30 29 27 26 24 21 19 16 15 15 14 13 13 13 13 13 12 10 8 7 7 6 6 6 7 7
10 12 12 12 14 16 17 18 19 20 22 24 24 23 24 24 23 24 26 28 31 33 31 30 30 30 30 32 31 28 29 31 33 38 43 45 47 48 47 46 46 43 38 34 33 33 29 27 28 30 32 32 32 30 30 30 31 32 31 29 28 27 25 23 22 19 16 15 15 14 14 14 15 15 14 12 10 8 8 7 6 5 5 6 6
4 5 5 6 7 9 12 14 15 15 16 20 22 21 22 24 24 25 29 31 32 33 33 33 34 34 33 32 29 27 30 34 38 44 48 49 46 45 47 49 46 42 39 37 35 33 31 30 32 34 35 33 31 31 32 32 32 33 29 24 23 25 23 21 20 18 16 16 17 16 16 17 16 14 12 10 9 8 8 8 7 6 5 5 6
7 6 5 3 3 3 4 6 7 7 9 12 15 16 18 22 23 24 27 30 31 31 31 32 34 36 36 34 31 29 30 36 45 52 54 53 50 48 49 51 48 43 42 41 38 36 36 37 37 36 36 35 32 30 28 27 27 28 26 23 23 23 20 18 19 18 18 20 20 18 18 17 14 12 11 10 8 8 9 10 8 7 6 6 7
10 9 8 7 6 4 3 2 1 1 4 6 7 9 13 18 20 21 22 24 26 28 29 30 31 31 32 36 39 40 41 46 52 54 53 52 53 53 53 52 49 45 43 43 43 43 41 38 37 37 36 33 29 26 23 22 22 23 25 27 26 23 19 18 18 19 21 22 20 18 17 15 13 13 12 10 8 9 10 10 8 7 7 7 8
12 11 10 9 8 7 6 4 3 2 1 3 4 4 7 12 17 20 22 23 26 28 31 35 36 35 34 37 41 45 49 49 46 46 48 49 49 50 50 51 51 48 47 47 45 44 43 39 34 33 32 29 26 24 23 22 20 20 24 27 25 21 20 18 18 21 23 22 18 16 15 14 13 12 11 10 9 9 9 9 8 8 8 8 8
11 11 10 9 8 7 5 4 3 2 2 3 4 4 5 8 12 16 19 22 26 30 34 37 40 41 42 44 44 45 47 46 43 44 48 49 47 47 48 49 50 51 52 51 45 40 41 40 33 30 29 28 27 25 24 22 21 23 27 25 21 21 22 21 22 24 23 19 17 15 15 14 13 11 10 10 9 9 9 9 9 8 7 8 8
10 8 7 7 7 6 5 4 3 2 1 0 1 2 3 4 7 12 15 18 22 28 33 38 43 46 47 49 50 49 49 49 49 50 52 52 50 50 50 51 53 54 52 47 41 37 37 35 31 29 29 30 30 28 24 22 23 26 28 25 23 23 23 22 24 25 21 18 16 15 14 14 13 11 10 10 10 10 9 8 8 8 8 8 8
10 9 7 7 7 6 5 5 4 4 3 3 3 2 2 3 6 9 12 15 18 22 28 34 41 47 51 53 53 53 53 53 54 54 55 55 55 56 56 55 56 55 49 41 35 32 29 27 27 30 32 33 33 31 26 23 23 25 25 22 21 24 24 23 24 22 19 17 16 13 13 13 12 11 11 11 10 9 9 8 8 8 8 8 7
11 11 10 9 8 7 6 5 5 5 4 4 4 2 2 4 6 7 9 11 13 16 22 30 36 42 49 53 56 58 58 57 58 59 58 57 59 60 58 56 53 47 41 37 32 29 27 27 28 33 37 39 38 36 33 29 27 27 25 21 20 22 24 23 21 19 17 15 14 13 13 12 11 11 11 11 10 9 9 8 8 8 8 8 7
12 11 10 9 8 7 6 6 5 4 4 3 2 3 4 5 6 6 8 10 13 15 21 29 35 37 40 45 51 58 62 62 62 62 61 61 63 62 55 49 43 37 33 35 36 34 33 32 31 32 36 40 40 40 39 35 31 30 29 24 21 21 22 20 19 19 17 14 13 13 13 12 12 12 11 10 10 9 8 8 8 8 8 7 6
12 11 10 9 8 8 7 6 6 5 5 4 4 4 5 7 7 6 8 11 13 15 19 25 29 28 28 30 35 43 55 64 64 63 63 62 60 56 48 40 35 32 31 34 37 36 36 37 36 34 35 38 40 40 38 35 31 29 28 25 22 21 21 20 20 20 17 14 13 14 13 12 12 12 10 9 9 8 7 8 8 8 8 6 5
13 12 11 9 7 7 7 6 6 6 6 5 5 5 5 7 8 9 9 10 10 12 14 16 19 19 17 21 19 20 31 46 51 55 61 62 55 49 46 41 35 31 30 30 32 32 33 34 35 34 35 36 37 36 35 33 31 30 28 26 24 23 22 21 21 19 16 14 13 14 13 12 12 12 10 9 8 7 7 9 9 8 7 6 5
12 12 11 10 8 7 5 5 5 6 5 5 4 5 5 7 8 9 10 9 10 13 12 11 15 20 12 11 19 14 17 28 36 34 37 44 46 44 43 41 35 32 31 32 32 32 32 33 33 33 34 35 35 35 34 32 31 31 30 27 25 23 22 21 20 19 16 14 13 14 13 12 11 11 10 8 7 7 8 9 9 8 6 5 5
11 10 10 9 8 6 5 5 5 5 5 5 4 5 6 7 9 10 10 9 10 14 11 9 16 27 23 8 17 21 18 25 34 29 23 29 36 37 38 38 35 33 34 35 35 35 35 36 36 36 35 35 34 34 33 32 32 31 29 27 26 24 21 20 19 18 16 14 14 14 13 12 11 10 9 8 7 8 9 9 9 7 6 5 6
10 9 8 8 7 6 5 5 5 5 5 5 4 5 6 7 8 9 10 9 8 11 13 14 24 33 29 19 21 25 19 19 27 30 27 27 29 29 31 33 33 33 33 34 36 36 37 37 38 37 35 34 33 32 32 32 32 30 29 28 26 23 20 19 19 18 16 15 15 14 13 12 11 10 9 8 8 8 9 10 9 7 6 6 6
9 8 7 7 6 5 5 5 5 5 5 5 5 5 5 6 7 8 9 10 9 8 12 18 26 31 26 18 19 23 21 21 25 28 27 26 26 25 25 26 29 31 33 34 35 36 37 37 36 35 33 32 32 32 33 32 31 30 30 28 25 21 19 19 19 18 17 16 15 14 13 13 12 11 9 8 8 9 10 10 9 8 6 6 6
9 8 8 7 6 5 5 5 5 5 5 5 5 5 4 5 6 7 8 9 10 9 8 14 22 27 25 21 19 20 21 22 25 26 26 25 24 23 22 24 26 30 33 34 34 35 36 35 33 31 31 31 31 32 33 32 31 31 30 28 25 22 20 19 19 20 18 16 15 15 14 13 12 11 9 9 9 9 10 10 10 8 7 7 7
11 10 9 8 8 7 7 7 6 6 6 5 5 5 4 4 5 6 6 6 7 8 8 8 12 19 22 22 22 22 21 21 23 25 25 25 24 23 22 24 26 28 30 32 32 33 32 31 30 29 29 30 31 32 32 32 31 31 30 28 26 24 21 20 21 20 18 16 15 15 14 13 12 11 10 9 10 10 10 10 10 9 8 7 8
12 11 11 10 10 9 9 9 8 7 6 5 5 5 4 4 4 5 6 6 6 6 5 7 7 9 13 16 19 21 22 22 22 23 23 24 24 24 24 24 25 26 27 28 28 29 28 28 28 28 28 29 30 31 31 30 29 29 28 27 26 24 22 21 20 19 18 16 15 13 13 13 12 11 10 10 10 10 10 10 10 9 8 8 9
14 13 13 12 12 11 10 9 8 8 7 7 6 5 4 4 4 4 6 7 7 6 6 5 5 6 7 9 12 16 18 20 22 22 21 22 23 23 24 24 24 23 23 23 23 23 23 24 26 28 28 29 30 31 30 29 27 26 26 25 24 23 21 20 18 17 17 16 14 12 12 12 11 10 11 10 9 10 10 10 9 9 8 8 9
16 15 14 13 12 11 11 10 9 9 9 8 7 6 6 5 4 3 5 7 8 8 7 6 6 6 6 6 8 11 13 15 17 18 20 22 24 23 23 22 21 20 20 19 19 20 20 21 24 27 28 29 31 31 29 28 26 25 24 22 21 20 19 17 16 15 15 16 15 13 12 11 10 10 11 10 10 10 10 10 9 9 8 9 9
18 17 16 15 14 14 13 13 13 12 11 10 8 7 6 6 4 3 2 4 8 12 13 9 7 9 11 11 12 15 15 16 17 18 19 21 22 21 21 21 20 20 20 19 19 20 20 21 23 26 28 30 31 30 28 26 25 24 23 22 20 19 17 16 15 15 15 16 16 14 12 10 9 9 9 10 10 10 10 9 9 9 8 9 9
19 18 17 17 17 17 17 17 16 15 14 13 10 9 7 6 4 3 1 0 3 8 12 11 10 13 14 12 13 17 18 17 16 18 19 19 20 20 21 21 21 21 20 19 19 19 20 20 22 24 27 29 29 28 26 25 25 24 23 22 20 18 17 16 16 15 15 15 15 14 11 10 9 9 9 10 10 9 9 9 9 9 9 8 8
20 19 18 17 17 16 16 16 16 15 15 14 13 12 10 7 5 4 3 1 1 2 5 7 9 12 12 8 7 12 16 16 14 14 15 17 19 20 20 20 20 19 18 18 18 18 19 19 21 23 25 27 27 26 25 25 25 25 24 22 20 19 18 17 15 14 14 14 14 12 10 10 10 10 9 9 8 8 8 8 9 9 8 8 8
21 19 18 18 17 16 16 16 15 15 15 15 15 14 13 11 9 8 6 3 2 1 3 5 5 8 10 9 7 9 14 17 17 15 15 16 18 19 19 19 19 19 18 18 18 18 18 18 19 21 23 25 25 24 24 25 25 25 23 21 20 19 18 15 13 12 13 14 13 11 11 11 11 10 9 8 7 7 8 8 9 8 8 8 8
Wind_Direction
201 203 204 204 206 208 210 212 214 214 215 217 218 217 218 219 220 221 222 225 226 227 229 231 232 233 230 227 226 226 225 220 216 226 234 236 235 233 232 233 232 232 234 235 237 240 242 241 241 242 243 241 236 233 229 229 230 229 229 228 227 229 224 223 244 257 254 260 268 268 267 264 254 250 248 246 256 265 266 266 264 267 274 282 288
200 201 202 202 205 207 209 211 213 214 213 214 215 215 218 220 221 221 221 224 226 227 229 231 232 233 231 230 230 228 229 226 218 225 235 235 234 233 232 232 232 232 233 234 235 238 239 239 239 240 240 238 234 231 227 227 228 227 227 225 221 227 229 225 233 250 258 263 267 270 276 274 264 263 267 260 261 272 270 266 268 272 281 288 292
200 201 202 202 204 206 207 208 210 211 210 210 211 212 215 218 221 221 220 221 224 227 229 230 232 233 231 231 231 230 230 228 225 230 236 234 234 234 233 232 231 231 232 233 233 234 236 238 237 238 239 236 232 231 228 227 228 226 225 225 223 227 234 233 232 243 254 256 258 264 273 276 273 272 274 269 267 274 275 274 278 281 286 291 294
199 199 201 202 202 203 205 206 208 208 208 209 210 210 212 214 218 221 219 217 221 225 228 229 231 232 231 230 231 230 230 229 229 232 235 234 235 236 235 234 232 231 232 232 232 233 234 236 237 237 238 236 233 233 231 229 229 227 224 226 226 228 234 236 236 240 247 248 250 255 258 264 269 270 269 268 267 273 277 278 280 285 290 293 298
199 198 199 200 200 202 205 206 207 207 207 209 210 210 210 210 212 216 216 213 216 223 226 227 228 229 229 230 230 230 230 230 230 230 232 234 235 235 236 236 235 235 234 233 232 233 235 237 238 239 238 235 230 232 234 233 232 229 225 226 229 229 229 233 236 237 238 241 246 252 252 252 257 262 264 264 266 270 273 277 281 287 293 293 294
199 197 196 197 199 202 204 205 206 206 205 207 208 208 208 208 208 212 214 212 213 219 223 225 226 227 229 230 230 230 230 230 230 230 231 233 234 235 235 236 237 237 236 235 234 236 237 238 239 239 238 234 230 233 237 236 234 230 227 227 231 230 228 230 234 233 233 236 241 247 248 247 250 256 258 259 263 265 269 277 280 288 299 299 297
197 194 195 197 199 201 202 203 204 203 203 204 205 205 206 207 208 209 211 211 210 214 219 224 226 227 228 229 229 230 229 229 230 230 231 232 234 234 233 234 236 237 237 236 235 237 239 240 240 239 239 237 234 236 238 237 234 232 231 230 231 230 227 227 229 229 228 230 235 242 244 245 247 251 256 259 262 261 262 273 279 291 306 307 303
192 192 194 197 199 201 201 201 201 201 201 201 202 203 204 206 207 207 208 209 210 213 216 221 225 226 227 228 228 229 228 228 229 229 230 232 233 233 232 233 234 235 237 237 235 237 240 241 241 240 241 241 239 239 240 239 235 233 233 232 230 228 225 221 223 226 226 228 234 239 242 245 248 248 251 252 249 246 247 260 278 293 305 308 306
192 193 194 198 201 201 198 198 199 198 198 199 201 202 203 205 206 207 210 211 211 213 215 217 221 224 225 226 227 227 226 226 227 228 230 230 231 231 231 232 232 233 235 235 235 237 240 242 242 241 243 246 244 242 242 241 237 235 236 236 232 229 224 218 220 223 226 232 237 240 244 248 247 244 245 241 235 241 244 246 269 289 300 304 305
198 199 199 202 203 201 199 200 199 198 201 202 204 204 204 206 207 208 212 214 212 211 213 215 217 220 222 223 224 224 225 227 228 229 230 230 229 229 229 231 231 232 233 233 232 235 239 242 241 242 245 246 245 244 242 239 237 235 238 241 239 234 225 219 223 227 230 235 239 245 251 254 252 248 251 250 239 245 252 245 264 291 297 294 294
200 202 204 204 202 203 204 205 204 204 205 205 205 207 206 207 209 210 213 215 212 212 213 214 215 217 218 220 221 222 225 228 229 230 232 231 228 227 228 229 230 231 231 230 230 233 237 239 240 243 244 243 243 244 240 236 234 233 238 245 245 241 231 225 228 231 232 237 242 247 251 255 258 254 255 258 246 243 255 257 275 294 293 288 289
200 205 207 203 202 204 204 204 205 205 204 203 204 206 206 207 209 209 211 212 212 211 212 213 216 216 216 217 219 221 226 230 230 231 233 231 227 225 226 228 228 228 229 229 229 232 235 236 238 241 242 240 239 239 236 232 230 232 240 249 250 247 241 238 238 236 233 237 242 245 248 253 258 255 251 255 250 248 259 267 278 287 286 283 289
201 206 205 201 202 204 202 201 202 201 200 201 202 203 204 206 208 209 210 211 211 211 211 212 215 216 216 217 218 220 226 230 231 231 233 232 228 224 222 225 227 227 228 229 229 231 233 234 236 239 241 240 235 232 231 230 228 232 241 249 248 246 243 241 242 241 237 238 242 243 243 248 253 250 247 247 244 251 265 271 274 275 274 278 286
200 202 202 201 203 203 201 201 200 198 198 199 199 201 204 207 209 210 211 210 210 213 213 213 215 217 217 218 219 221 226 230 231 231 232 232 229 224 221 223 226 227 229 229 230 231 233 234 236 238 238 237 232 228 229 230 229 231 237 241 241 242 242 240 239 240 238 236 237 239 239 239 241 240 242 243 239 246 261 269 272 271 273 280 288
203 202 200 201 202 201 201 200 196 195 195 196 198 201 204 207 210 209 209 210 212 213 213 213 216 218 218 218 220 223 226 230 231 231 231 231 228 224 222 221 223 225 228 230 231 232 234 236 237 237 235 235 233 229 228 231 230 228 230 232 231 232 236 236 232 229 228 228 231 237 238 234 230 228 231 233 234 246 257 263 265 268 275 285 291
205 201 197 198 199 198 197 196 193 194 194 195 199 202 205 207 207 206 207 210 212 212 212 214 217 219 219 219 221 224 227 230 231 231 230 229 226 223 222 221 221 223 226 229 231 232 234 235 235 235 233 234 237 233 228 228 226 222 221 219 215 213 219 225 223 216 215 221 228 231 230 228 227 228 231 226 222 232 245 255 260 265 277 288 293
201 199 196 195 195 194 195 195 195 195 195 197 201 203 205 206 205 206 208 208 211 213 214 215 216 219 220 219 220 224 226 227 229 229 228 226 223 221 221 220 220 221 223 226 228 229 233 234 234 233 231 233 236 231 224 222 218 213 212 208 204 202 204 212 214 211 212 219 224 224 224 224 226 232 234 225 215 213 225 250 267 273 278 285 289
199 199 195 193 195 198 201 202 201 198 196 199 202 202 204 204 205 208 209 208 211 214 215 217 218 218 220 219 219 222 224 225 228 228 226 225 221 219 219 218 218 220 220 221 223 227 231 234 232 230 230 232 234 230 225 223 212 205 205 202 199 198 195 197 200 201 204 208 210 212 215 215 217 219 220 219 223 230 237 252 271 276 269 274 284
199 196 194 197 202 203 204 204 204 201 200 201 203 203 204 205 206 209 211 211 212 212 212 216 217 217 219 220 219 219 220 223 227 226 224 223 220 217 218 217 216 217 217 217 219 221 227 230 230 230 230 231 232 229 226 220 208 200 200 198 196 196 191 188 191 193 194 196 198 200 199 199 204 211 220 232 244 251 247 243 248 245 248 270 286
201 197 197 201 204 204 204 203 204 205 205 205 205 205 204 205 207 210 212 213 215 213 211 212 214 214 217 220 220 219 217 219 225 226 223 222 220 216 215 215 214 215 215 215 216 216 217 221 225 227 227 227 228 225 218 211 203 197 196 194 193 193 189 186 190 192 190 189 188 187 188 193 201 209 223 238 245 240 224 212 210 210 226 270 284
201 200 202 202 202 203 204 203 204 207 207 206 205 205 206 207 207 208 211 213 216 218 216 216 217 216 215 217 220 221 218 216 220 223 222 221 219 215 214 215 214 212 212 213 213 212 210 211 217 221 221 220 219 215 208 205 200 195 193 191 191 193 190 187 187 187 184 181 180 180 185 192 198 202 205 204 198 191 186 187 194 203 226 268 283
200 200 202 202 201 203 205 206 206 208 208 207 207 208 209 209 208 209 211 213 216 219 220 220 221 219 216 216 219 220 218 215 217 221 221 220 218 216 215 217 215 210 210 212 210 209 209 208 212 216 215 210 207 205 201 199 198 197 196 194 195 197 193 186 182 180 177 176 176 177 183 187 187 184 180 175 175 176 177 185 198 215 240 261 270
200 200 202 202 203 205 207 208 206 206 207 207 208 210 209 208 208 208 209 211 217 221 221 220 222 222 219 217 218 218 215 213 215 218 218 217 218 217 217 218 216 211 209 210 207 206 208 206 208 212 208 200 199 199 196 193 196 199 197 195 195 194 188 181 179 178 174 174 175 176 181 181 177 173 173 172 175 180 186 197 214 237 251 257 261
201 202 203 204 205 207 208 207 206 206 207 205 206 208 206 204 206 208 209 211 216 221 221 220 222 225 225 226 225 220 214 211 213 217 218 217 217 218 217 216 215 212 210 208 204 202 202 204 207 207 200 194 194 195 191 191 194 194 192 190 187 183 180 179 179 177 173 174 177 178 180 178 173 172 175 176 183 196 206 220 238 250 253 257 266
203 203 204 206 207 207 206 206 206 207 206 204 205 208 207 204 207 209 211 213 217 223 224 222 221 222 221 223 227 224 218 214 214 215 216 216 217 218 217 214 214 213 209 205 205 206 207 209 207 199 192 190 191 190 191 192 191 187 184 182 178 177 178 179 178 177 176 178 180 179 178 177 175 177 183 188 198 210 220 231 244 251 256 263 272
203 204 206 207 208 206 205 207 209 210 210 209 211 212 210 209 210 210 210 212 216 221 223 220 219 218 217 220 224 222 215 212 212 213 214 215 217 218 216 213 213 211 207 206 210 212 212 210 201 188 185 187 187 187 191 190 185 181 180 177 174 175 178 180 180 179 178 180 181 178 174 175 179 187 195 200 204 211 220 226 228 232 239 254 269
199 204 206 206 207 207 207 210 213 212 211 212 215 215 212 212 213 212 212 215 219 222 223 222 221 222 222 223 222 216 210 210 209 208 210 212 213 214 212 210 208 206 202 204 207 206 204 199 188 182 182 184 183 186 189 185 179 177 176 175 176 177 180 184 185 183 180 178 177 172 169 176 186 193 199 203 203 211 225 227 219 218 225 240 263
156 173 184 195 203 209 213 216 217 216 213 213 216 217 214 215 216 216 215 216 219 223 224 224 225 226 227 224 217 210 210 209 205 205 207 207 207 206 205 203 201 198 196 196 194 191 187 182 177 176 176 174 174 178 180 178 176 175 173 173 177 178 181 185 186 183 180 177 173 172 176 184 190 193 198 203 204 213 226 226 221 226 232 244 266
85 89 95 113 147 182 205 213 217 225 227 225 226 229 227 225 228 231 228 224 223 226 228 228 227 227 227 222 211 203 205 209 210 210 208 205 203 203 201 199 196 193 193 189 182 175 171 168 167 168 167 164 164 169 173 173 175 176 175 176 178 177 179 184 184 184 184 182 179 180 184 189 192 194 200 206 204 208 222 227 226 230 234 245 263
70 69 68 69 72 78 87 102 124 213 232 236 244 247 244 241 242 248 250 245 241 240 240 240 237 232 227 223 217 213 216 219 218 214 209 207 207 205 201 196 191 189 188 183 173 166 162 161 162 163 162 160 162 166 171 174 175 176 178 179 179 178 179 181 182 184 186 185 184 183 185 191 196 198 205 210 202 203 218 223 222 225 233 246 260
66 66 66 68 72 76 80 84 82 86 213 244 261 272 271 263 259 261 265 267 264 259 253 249 247 242 236 232 229 226 226 226 221 212 208 209 209 205 198 191 186 184 181 175 167 162 160 161 163 162 161 161 164 168 172 176 176 176 178 178 178 178 179 180 183 186 187 186 185 185 189 197 201 202 208 212 202 199 208 212 214 223 233 245 256
72 71 71 75 80 81 85 95 106 133 173 211 233 246 268 277 277 280 283 282 278 273 267 261 256 251 246 241 236 230 226 223 217 211 210 210 208 201 193 186 182 181 178 171 165 161 162 163 163 163 162 162 166 169 172 175 177 178 177 176 176 178 180 183 188 189 187 186 187 189 195 202 204 205 208 206 201 198 200 206 214 223 233 242 247
80 80 76 78 79 74 69 68 65 65 81 143 236 243 258 270 280 290 297 299 294 284 274 267 261 255 251 246 239 232 225 218 213 210 210 208 201 193 188 185 182 178 173 166 161 162 166 166 163 163 162 161 164 168 171 175 179 180 180 178 176 177 180 187 191 191 189 190 191 194 200 204 205 204 202 197 197 202 206 213 219 223 232 240 243
77 76 81 94 94 85 80 75 67 64 61 56 57 44 329 295 281 281 287 297 302 296 287 278 268 258 252 247 239 231 223 215 209 207 206 201 193 187 183 179 175 171 167 163 159 161 166 168 166 163 160 159 162 167 172 176 178 179 179 177 172 174 181 187 190 190 191 195 197 198 201 203 201 199 196 191 193 204 212 218 222 224 231 238 245
70 70 77 89 94 88 85 84 83 86 84 73 64 39 331 303 292 289 290 293 296 294 292 289 279 266 257 248 237 227 218 210 203 201 199 193 186 180 172 164 161 162 163 162 162 164 167 169 168 165 162 162 165 171 176 179 180 181 180 173 166 172 181 185 188 189 191 193 195 195 196 196 192 190 189 187 193 205 215 221 226 227 228 236 251
65 67 68 70 74 75 73 73 76 80 77 61 30 342 326 318 312 312 312 306 298 290 288 289 285 275 262 250 238 225 213 203 197 194 191 184 176 169 160 154 155 156 158 161 164 167 170 169 166 165 166 167 170 174 178 181 183 183 182 176 167 170 176 181 186 189 188 184 184 186 186 183 180 182 186 191 199 209 217 223 226 225 226 236 257
63 64 62 60 63 66 68 68 68 62 54 43 22 354 339 337 337 332 322 313 305 298 296 298 295 283 260 245 239 226 209 198 192 185 178 172 166 158 151 149 151 152 155 162 164 165 167 168 167 169 173 173 172 173 178 182 183 182 181 176 171 172 177 181 184 184 180 175 175 178 177 175 176 182 191 197 202 209 216 219 221 222 224 234 257
61 62 64 64 63 63 65 66 63 57 51 39 22 2 347 346 348 346 341 339 340 335 326 325 328 313 265 223 215 222 206 189 179 170 164 159 154 150 147 148 151 152 154 159 160 160 163 166 168 173 176 173 171 173 178 182 183 181 178 176 175 178 180 179 177 176 172 169 170 172 173 175 180 188 196 201 203 207 211 214 218 222 223 229 244
58 58 60 63 63 63 62 60 54 48 43 35 21 6 360 0 359 359 0 9 30 33 14 3 16 8 334 211 176 174 181 163 148 145 147 143 139 141 144 145 148 151 153 155 158 160 162 165 170 176 176 172 173 177 181 182 182 179 177 175 176 178 176 173 171 170 168 167 168 171 175 181 186 191 197 201 202 206 209 213 219 224 228 235 248
58 54 53 54 54 50 44 43 44 38 29 26 18 11 18 17 7 7 11 16 50 66 50 26 47 46 32 51 134 139 149 142 130 123 119 118 123 133 140 142 146 152 155 158 162 163 164 168 173 176 175 175 178 181 182 181 179 177 175 174 173 173 172 170 169 168 168 169 171 175 180 186 188 191 197 200 202 207 213 217 221 223 228 243 258
60 58 55 53 51 42 28 24 35 40 38 39 34 23 28 31 19 15 18 14 34 71 70 53 61 68 64 67 99 112 111 105 107 112 113 113 117 126 134 140 147 153 156 160 164 165 167 170 173 175 177 179 181 182 181 179 176 175 174 173 172 171 171 170 169 170 172 174 176 180 185 188 190 192 197 200 203 211 217 221 223 224 229 245 261
58 57 53 50 48 46 36 26 33 46 52 60 61 47 40 44 36 28 29 22 12 36 71 76 80 89 95 100 108 113 110 99 98 103 108 112 117 122 129 139 148 155 159 163 167 168 169 171 173 177 180 181 182 182 180 178 176 174 174 173 174 173 171 170 172 176 177 178 181 185 189 191 193 196 199 201 207 216 221 222 224 226 232 247 262
52 51 49 46 40 39 39 28 25 42 56 71 84 82 70 70 67 54 44 36 19 10 39 83 100 110 119 125 127 125 117 110 109 110 112 118 125 130 136 145 153 160 165 168 169 171 173 174 176 179 181 182 184 183 180 177 176 175 175 177 178 176 172 173 178 182 182 182 185 189 191 193 195 198 200 205 213 221 224 223 223 226 234 248 260
49 45 42 42 38 33 32 25 19 33 55 72 87 90 83 79 84 83 75 65 52 31 22 49 95 120 132 138 138 133 124 118 118 122 126 132 138 142 148 155 160 166 170 172 173 175 177 178 179 181 183 185 186 184 181 179 178 178 179 181 180 177 177 180 184 186 186 186 189 193 195 196 199 200 202 206 215 222 225 223 221 224 231 244 258
49 46 40 38 35 30 28 28 23 24 38 54 62 70 73 69 74 87 93 91 90 87 65 40 52 95 123 133 137 137 135 133 132 134 137 141 145 151 159 166 169 172 174 176 178 180 182 183 184 185 187 188 188 185 182 181 181 182 184 183 181 181 184 187 188 189 190 191 192 196 199 200 203 206 207 208 214 221 225 223 219 219 228 243 256
44 46 43 40 36 30 26 27 26 21 24 32 33 31 41 56 66 84 101 106 109 113 112 98 79 79 95 116 130 136 138 140 141 142 145 150 154 160 167 170 173 174 174 176 180 183 187 189 189 190 191 191 188 184 183 183 184 187 188 186 185 186 189 190 191 194 196 197 197 199 203 205 206 209 212 215 216 217 218 218 216 218 230 244 256
42 43 43 40 36 31 24 22 25 26 27 29 28 21 19 29 41 71 109 126 138 146 148 146 139 130 123 128 138 141 142 145 147 149 154 160 164 168 170 170 169 169 170 172 176 180 185 189 191 192 193 190 186 183 184 185 188 190 190 188 188 189 189 189 190 194 200 203 203 203 205 206 207 210 215 217 213 207 207 212 218 224 235 245 252
44 42 42 39 36 32 27 22 22 25 27 27 26 27 29 25 12 13 97 144 161 167 169 168 161 154 154 157 158 157 156 156 156 157 161 165 167 168 167 166 166 166 166 168 171 175 179 185 189 191 192 188 184 183 185 187 190 191 189 187 187 186 183 184 188 195 202 207 208 208 209 210 209 206 203 202 202 202 205 213 223 231 237 242 245
43 41 40 38 35 33 30 27 25 24 25 25 21 21 29 34 17 353 343 158 175 175 176 178 175 167 163 163 164 163 161 159 159 161 166 170 170 170 169 169 170 169 167 168 170 173 175 178 183 187 188 186 185 185 187 190 191 190 187 184 183 181 182 187 194 200 205 211 214 214 210 205 198 191 187 189 196 204 211 220 228 233 234 234 235
39 39 38 37 35 32 29 29 29 26 24 24 20 14 13 16 11 2 1 357 332 190 192 199 191 173 166 169 172 164 158 155 155 164 173 175 171 169 170 170 170 168 167 167 168 169 171 174 178 183 186 188 190 191 192 192 191 188 185 181 180 182 188 194 199 205 213 219 218 210 197 185 180 179 182 189 198 207 215 221 224 225 224 223 223
36 37 38 36 36 33 30 29 30 30 27 26 24 19 11 4 357 358 3 4 345 289 228 220 198 172 172 186 189 166 155 154 157 166 177 176 167 164 166 168 168 169 169 167 165 165 167 171 176 181 185 189 192 194 195 194 191 186 182 181 183 189 193 196 198 208 217 217 206 190 178 176 177 179 183 191 199 207 213 215 213 213 215 215 215